Terminal Aerodrome Forecast
Issued by NWS Wilmington, OH

Current Version | Previous Version | Graphics & Text | Print | Product List | Glossary On
Versions: 1 2 3 4 5 6 7 8 9 10 11 12 13 14 15 16 17 18 19 20 21 22 23 24 25 26 27 28 29 30 31 32
000
FTUS41 KILN 281103 AAB
TAFCVG
TAF AMD
KCVG 281103Z 2811/2912 36004KT 4SM BR FEW001 SCT130 BKN250
     FM281300 01004KT P6SM SCT120 BKN250
     FM281600 02006KT P6SM SCT040 BKN250
     FM290000 VRB03KT P6SM SCT130 BKN250=

USA.gov is the U.S. government's official web portal to all federal, state and local government web resources and services.